[Iaude] MPEC M52: 2019 GY184 [a=44.04,e=0.07,i=4.1,H=6.51]
    mpec at cfa.harvard.edu 
    mpec at cfa.harvard.edu
       
    Tue Jun 25 22:30:35 EDT 2024
    
    
  
M.P.E.C. 2024-M52                                 Issued 2024 June 26, 02:28 UT
     The Minor Planet Electronic Circulars contain information on unusual
         minor planets, routine data on comets and natural satellites,
         and occasional editorial announcements.  They are published
    on behalf of Division F of the International Astronomical Union by the
          Minor Planet Center, Smithsonian Astrophysical Observatory,
                          Cambridge, MA 02138, U.S.A.
			  
             Prepared using the Tamkin Foundation Computer Network
                              MPC at CFA.HARVARD.EDU
            URL https://www.minorplanetcenter.net/    ISSN 1523-6714
                                   2019 GY184                                   
Additional Observations:
     K19GI4Y &C2013 04 03.21908211 40 45.48 +06 01 42.4          22.6 zWEM052W84
     K19GI4Y &C2016 03 02.23869711 55 39.52 +04 32 15.8                WEM052W84
     K19GI4Y &C2017 03 01.26045511 59 57.97 +04 06 25.1          23.7 gWEM052W84
     K19GI4Y &C2018 02 22.34024112 04 37.23 +03 37 56.5          22.7 rWEM052W84
     K19GI4Y 1C2018 04 22.28263612 00 48.03 +04 02 52.3                WEM052T09
Observer details:
T09 Subaru Telescope, Maunakea.  Observer .  Measurer S. Deen.  8.3-m Subaru
    Telescope + CCD.
W84 Cerro Tololo-DECam.  Observers T. Meier, D. Lang, R. Zhou, A. Walker, D.
    Schlegel.  Measurer S. Deen.  4.0-m reflector + CCD.
Orbital elements:
2019 GY184                                                                      
Epoch 2024 Mar. 31.0 TT = JDT 2460400.5                 Alexandersen            
M 150.25767              (2000.0)            P               Q                  
n   0.00337230     Peri.  279.44178     +0.84542612     -0.53008483             
a  44.0404343      Node   112.59504     +0.51357573     +0.77328546             
e   0.0669970      Incl.    4.05617     +0.14661053     +0.34790756             
P 292              H    6.51          G   0.15           U   5                  
Residuals in seconds of arc
130403 W84  0.0   0.0     190205 T09  0.3-  0.1-    190303 T09  0.0   0.1-
160302 W84  0.1+  0.0     190205 T09  0.2+  0.1-    190303 T09  0.1+  0.1+
170301 W84  0.0   0.0     190205 T09  0.1+  0.1+    190404 T09  0.1-  0.0
180222 W84  0.1-  0.1+    190205 T09  0.0   0.1-    190404 T09  0.0   0.0
180422 T09  0.0   0.0     190303 T09  0.1-  0.1-    190404 T09  0.2+  0.2+
Ephemeris:
2019 GY184               a,e,i = 44.04, 0.07, 4                  q = 41.0899
Date    TT    R. A. (2000) Decl.     Delta      r    Elong.  Phase     V
2024 05 27    12 24 09.3 +01 40 02  46.1527 46.6514   118.9     1.1    23.3
...
2024 06 11    12 23 51.3 +01 40 45  46.3874 46.6525   104.5     1.2    23.4
...
2024 06 19    12 23 48.5 +01 40 21  46.5201 46.6531    96.9     1.2    23.4
...
2024 06 25    12 23 49.7 +01 39 42  46.6212 46.6536    91.2     1.2    23.4
2024 06 26    12 23 50.1 +01 39 34  46.6381 46.6537    90.3     1.2    23.4
2024 06 27    12 23 50.7 +01 39 25  46.6550 46.6537    89.3     1.2    23.4
...
2024 07 03    12 23 55.5 +01 38 22  46.7562 46.6542    83.6     1.2    23.4
...
2024 07 11    12 24 06.3 +01 36 31  46.8892 46.6548    76.1     1.2    23.4
...
2024 07 26    12 24 39.0 +01 31 47  47.1250 46.6560    61.9     1.1    23.4
M. P. C. Staff               (C) Copyright 2024 MPC           M.P.E.C. 2024-M52
    
    
More information about the Iaude
mailing list